When you browse on this site, cookies collect data to enhance your experience and personalize the content and advertising you see.
Visit our Privacy Policy to learn more. By continuing to use the site, you agree to this use of cookies and data.
  • In Latvia
  • List of Countries
  • For 7 days
  • Water Temperature
  • Weather Map
  • Weather Widgets
  • user-avatar
    Login

    Hourly Weather Santiago del Estero

    Today, 22 September, Sunday

    Time Temperature Precipitation Wind Pressure Humidity
    00:00 +14°C° 0 mm 3 mps 748 mmHg 37%
    01:00 +14°C° 0 mm 2 mps 748 mmHg 39%
    02:00 +13°C° 0 mm 2 mps 748 mmHg 41%
    03:00 +13°C° 0 mm 2 mps 748 mmHg 43%
    04:00 +13°C° 0 mm 2 mps 748 mmHg 45%
    05:00 +13°C° 0 mm 2 mps 749 mmHg 46%
    06:00 +13°C° 0 mm 3 mps 749 mmHg 43%
    07:00 +16°C° 0 mm 3 mps 750 mmHg 40%
    08:00 +18°C° 0 mm 3 mps 750 mmHg 37%
    09:00 +20°C° 0 mm 4 mps 750 mmHg 31%
    10:00 +23°C° 0 mm 4 mps 751 mmHg 26%
    11:00 +27°C° 0 mm 5 mps 751 mmHg 21%
    12:00 +28°C° 0 mm 5 mps 750 mmHg 20%
    13:00 +29°C° 0 mm 5 mps 749 mmHg 19%
    14:00 +30°C° 0 mm 5 mps 748 mmHg 18%
    15:00 +30°C° 0 mm 6 mps 747 mmHg 18%
    16:00 +29°C° 0 mm 6 mps 747 mmHg 18%
    17:00 +29°C° 0 mm 6 mps 747 mmHg 18%
    18:00 +27°C° 0 mm 6 mps 747 mmHg 20%
    19:00 +23°C° 0 mm 6 mps 747 mmHg 22%
    20:00 +21°C° 0 mm 6 mps 748 mmHg 23%
    21:00 +20°C° 0 mm 5 mps 748 mmHg 25%
    22:00 +19°C° 0 mm 5 mps 748 mmHg 27%
    23:00 +17°C° 0 mm 5 mps 748 mmHg 28%

    Tomorrow, 23 September, Monday

    Time Temperature Precipitation Wind Pressure Humidity
    00:00 +18°C° 0 mm 4 mps 748 mmHg 31%
    01:00 +17°C° 0 mm 4 mps 747 mmHg 33%
    02:00 +15°C° 0 mm 4 mps 747 mmHg 36%
    03:00 +14°C° 0 mm 3 mps 747 mmHg 39%
    04:00 +13°C° 0 mm 3 mps 746 mmHg 42%
    05:00 +13°C° 0 mm 3 mps 746 mmHg 44%
    06:00 +14°C° 0 mm 3 mps 746 mmHg 43%
    07:00 +15°C° 0 mm 4 mps 746 mmHg 41%
    08:00 +17°C° 0 mm 5 mps 747 mmHg 40%
    09:00 +20°C° 0 mm 4 mps 746 mmHg 35%
    10:00 +23°C° 0 mm 4 mps 746 mmHg 30%
    11:00 +26°C° 0 mm 4 mps 745 mmHg 25%
    12:00 +28°C° 0 mm 4 mps 745 mmHg 23%
    13:00 +29°C° 0 mm 4 mps 744 mmHg 21%
    14:00 +32°C° 0 mm 4 mps 743 mmHg 20%
    15:00 +32°C° 0 mm 4 mps 743 mmHg 20%
    16:00 +32°C° 0 mm 4 mps 742 mmHg 20%
    17:00 +32°C° 0 mm 4 mps 742 mmHg 21%
    18:00 +28°C° 0 mm 4 mps 743 mmHg 25%
    19:00 +26°C° 0 mm 5 mps 744 mmHg 28%
    20:00 +23°C° 0 mm 5 mps 745 mmHg 32%
    21:00 +21°C° 0 mm 4 mps 745 mmHg 35%
    22:00 +20°C° 0 mm 4 mps 746 mmHg 39%
    23:00 +19°C° 0 mm 4 mps 747 mmHg 42%

    Day after tomorrow, 24 September, Tuesday

    Time Temperature Precipitation Wind Pressure Humidity
    00:00 +18°C° 0 mm 3 mps 747 mmHg 49%
    01:00 +17°C° 0 mm 3 mps 747 mmHg 56%
    02:00 +16°C° 0 mm 3 mps 747 mmHg 63%
    03:00 +14°C° 0 mm 3 mps 748 mmHg 65%
    04:00 +14°C° 0 mm 3 mps 748 mmHg 67%
    05:00 +14°C° 0 mm 3 mps 748 mmHg 69%
    06:00 +16°C° 0 mm 3 mps 749 mmHg 66%
    07:00 +17°C° 0 mm 3 mps 749 mmHg 63%
    08:00 +19°C° 0 mm 3 mps 750 mmHg 59%
    09:00 +21°C° 0 mm 3 mps 750 mmHg 51%
    10:00 +25°C° 0 mm 3 mps 750 mmHg 43%
    11:00 +27°C° 0 mm 3 mps 750 mmHg 35%
    12:00 +28°C° 0 mm 4 mps 749 mmHg 31%
    13:00 +30°C° 0 mm 4 mps 749 mmHg 27%
    14:00 +32°C° 0 mm 5 mps 748 mmHg 23%
    15:00 +32°C° 0 mm 4 mps 748 mmHg 22%
    16:00 +32°C° 0 mm 4 mps 747 mmHg 22%
    17:00 +30°C° 0 mm 4 mps 747 mmHg 22%
    18:00 +27°C° 0 mm 3 mps 747 mmHg 25%
    19:00 +25°C° 0 mm 3 mps 748 mmHg 28%
    20:00 +21°C° 0 mm 2 mps 748 mmHg 31%
    21:00 +20°C° 0 mm 2 mps 748 mmHg 40%
    22:00 +19°C° 0 mm 2 mps 749 mmHg 48%
    23:00 +17°C° 0 mm 2 mps 749 mmHg 56%

    25 September, Wednesday

    Time Temperature Precipitation Wind Pressure Humidity
    00:00 +16°C° 0 mm 2 mps 749 mmHg 63%
    01:00 +15°C° 0 mm 1 mps 748 mmHg 71%
    02:00 +13°C° 0 mm 0 mps 748 mmHg 78%
    03:00 +13°C° 0 mm 0 mps 748 mmHg 79%
    04:00 +14°C° 0 mm 1 mps 748 mmHg 80%
    05:00 +14°C° 0 mm 1 mps 748 mmHg 81%
    06:00 +16°C° 0 mm 1 mps 749 mmHg 72%
    07:00 +19°C° 0 mm 1 mps 749 mmHg 64%
    08:00 +20°C° 0 mm 0 mps 749 mmHg 55%
    09:00 +24°C° 0 mm 1 mps 749 mmHg 47%
    10:00 +26°C° 0 mm 1 mps 749 mmHg 39%
    11:00 +29°C° 0 mm 2 mps 749 mmHg 30%
    12:00 +30°C° 0 mm 2 mps 748 mmHg 27%
    13:00 +31°C° 0 mm 2 mps 747 mmHg 23%
    14:00 +34°C° 0 mm 2 mps 746 mmHg 20%
    15:00 +33°C° 0 mm 3 mps 746 mmHg 20%
    16:00 +33°C° 0 mm 3 mps 745 mmHg 19%
    17:00 +33°C° 0 mm 4 mps 745 mmHg 19%
    18:00 +29°C° 0 mm 4 mps 745 mmHg 21%
    19:00 +26°C° 0 mm 3 mps 745 mmHg 24%
    20:00 +22°C° 0 mm 3 mps 746 mmHg 26%
    21:00 +21°C° 0 mm 3 mps 746 mmHg 27%
    22:00 +20°C° 0 mm 3 mps 746 mmHg 27%
    23:00 +19°C° 0 mm 3 mps 746 mmHg 28%

    26 September, Thursday

    Time Temperature Precipitation Wind Pressure Humidity
    00:00 +18°C° 0 mm 3 mps 746 mmHg 31%
    01:00 +17°C° 0 mm 3 mps 746 mmHg 33%
    02:00 +16°C° 0 mm 2 mps 745 mmHg 36%
    03:00 +15°C° 0 mm 2 mps 745 mmHg 38%
    04:00 +15°C° 0 mm 2 mps 745 mmHg 40%
    05:00 +14°C° 0 mm 2 mps 745 mmHg 41%
    06:00 +16°C° 0 mm 2 mps 746 mmHg 38%
    07:00 +18°C° 0 mm 3 mps 746 mmHg 34%
    08:00 +21°C° 0 mm 3 mps 747 mmHg 31%
    09:00 +24°C° 0 mm 3 mps 746 mmHg 27%
    10:00 +27°C° 0 mm 4 mps 746 mmHg 23%
    11:00 +30°C° 0 mm 4 mps 746 mmHg 20%
    12:00 +32°C° 0 mm 5 mps 745 mmHg 18%
    13:00 +34°C° 0 mm 5 mps 744 mmHg 16%
    14:00 +35°C° 0 mm 5 mps 743 mmHg 15%
    15:00 +35°C° 0 mm 5 mps 743 mmHg 14%
    16:00 +35°C° 0 mm 5 mps 742 mmHg 14%
    17:00 +35°C° 0 mm 5 mps 741 mmHg 13%
    18:00 +32°C° 0 mm 6 mps 742 mmHg 17%
    19:00 +29°C° 0 mm 6 mps 742 mmHg 21%
    20:00 +26°C° 0 mm 6 mps 742 mmHg 24%
    21:00 +24°C° 0 mm 6 mps 742 mmHg 27%
    22:00 +23°C° 0 mm 6 mps 742 mmHg 30%
    23:00 +22°C° 0 mm 6 mps 742 mmHg 33%

    27 September, Friday

    Time Temperature Precipitation Wind Pressure Humidity
    00:00 +21°C° 0 mm 5 mps 741 mmHg 36%
    01:00 +20°C° 0 mm 4 mps 741 mmHg 38%
    02:00 +19°C° 0 mm 4 mps 741 mmHg 41%
    03:00 +18°C° 0 mm 4 mps 740 mmHg 44%
    04:00 +17°C° 0 mm 3 mps 740 mmHg 47%
    05:00 +16°C° 0 mm 3 mps 740 mmHg 49%
    06:00 +18°C° 0 mm 4 mps 741 mmHg 46%
    07:00 +20°C° 0 mm 5 mps 741 mmHg 42%
    08:00 +22°C° 0 mm 6 mps 741 mmHg 38%
    09:00 +24°C° 0 mm 7 mps 741 mmHg 33%
    10:00 +28°C° 0 mm 7 mps 741 mmHg 28%
    11:00 +32°C° 0 mm 7 mps 741 mmHg 23%
    12:00 +33°C° 0 mm 7 mps 740 mmHg 21%
    13:00 +35°C° 0 mm 7 mps 739 mmHg 19%
    14:00 +38°C° 0 mm 7 mps 739 mmHg 16%
    15:00 +38°C° 0 mm 6 mps 738 mmHg 16%
    16:00 +36°C° 0 mm 6 mps 738 mmHg 16%
    17:00 +36°C° 0 mm 5 mps 737 mmHg 16%
    18:00 +34°C° 0 mm 5 mps 738 mmHg 20%
    19:00 +30°C° 0 mm 4 mps 739 mmHg 23%
    20:00 +27°C° 0 mm 3 mps 739 mmHg 27%
    21:00 +26°C° 0 mm 4 mps 739 mmHg 30%
    22:00 +25°C° 0 mm 4 mps 739 mmHg 33%
    23:00 +23°C° 0 mm 4 mps 740 mmHg 36%
    Show more